Oelwein, IA

6:56 PM CDT on August 18, 2019 (GMT -0500)
Oelwein Municipal

Weather History for KOLZ - June, 2019

Change the Weather History Date:

Sunday, June 9, 2019

  Actual Average Record
Temperature  
Mean Temperature 71 °F -  
Max Temperature 82 °F 77 °F 95 °F (2015)
Min Temperature 60 °F 55 °F 40 °F (1977)
Cooling Degree Days 6    
Growing Degree Days 21 (Base 50)    
Moisture  
Dew Point 60 °F    
Average Humidity 72    
Maximum Humidity 94    
Minimum Humidity 48    
Precipitation  
Precipitation 0.00 in - - ()
Sea Level Pressure  
Sea Level Pressure 30.01 in    
Wind  
Wind Speed 10 mph (North)    
Max Wind Speed 26 mph    
Max Gust Speed 37 mph    
Visibility 10 miles    
Events      
Averages and records for this station are not official NWS values.
T = Trace of Precipitation, MM = Missing Value Source: NWS Daily Summary

Daily Weather History Graph

Daily Weather History Graph

Search for Another Location

Airport or City:

Astronomy

Jun. 09, 2019 Rise Set
Actual Time 5:29 AM CDT 8:44 PM CDT
Civil Twilight 4:55 AM CDT 9:19 PM CDT
Nautical Twilight 4:10 AM CDT 10:04 PM CDT
Astronomical Twilight 3:15 AM CDT 10:59 PM CDT
Moon 12:13 PM CDT (6/9) 1:20 AM CDT (6/9)
Length of Visible Light 16h 24m
Length of Day
15h 14m
Waxing Crescent, 44% of the Moon is Illuminated
Jun 9
Waxing Crescent
Jun 10
First Quarter
Jun 17
Full
Jun 25
Last Quarter
Jul 2
New

Hourly Weather History & Observations

Time (CDT) Temp. Heat Index Dew Point Humidity Pressure Visibility Wind Dir Wind Speed Gust Speed Precip Events Conditions
12:15 AM 66.2 °F - 60.8 °F 83% 29.98 in 10.0 mi ESE 6.9 mph - N/A   Clear
12:35 AM 66.2 °F - 60.8 °F 83% 29.98 in 10.0 mi ESE 5.8 mph - N/A   Clear
12:55 AM 66.2 °F - 60.8 °F 83% 29.98 in 10.0 mi ESE 6.9 mph - N/A   Clear
1:15 AM 66.2 °F - 60.8 °F 83% 29.97 in 10.0 mi East 6.9 mph - N/A   Clear
1:35 AM 66.2 °F - 60.8 °F 83% 29.97 in 10.0 mi East 6.9 mph - N/A   Clear
1:55 AM 66.2 °F - 60.8 °F 83% 29.97 in 10.0 mi East 5.8 mph - N/A   Clear
2:15 AM 64.4 °F - 60.8 °F 88% 29.98 in 10.0 mi East 4.6 mph - N/A   Clear
2:35 AM 66.2 °F - 60.8 °F 83% 29.97 in 10.0 mi ESE 4.6 mph - N/A   Clear
2:55 AM 64.4 °F - 60.8 °F 88% 29.97 in 10.0 mi ESE 5.8 mph - N/A   Clear
3:15 AM 64.4 °F - 60.8 °F 88% 29.96 in 10.0 mi ESE 6.9 mph - N/A   Clear
3:35 AM 64.4 °F - 60.8 °F 88% 29.96 in 10.0 mi ESE 5.8 mph - N/A   Clear
3:55 AM 62.6 °F - 60.8 °F 94% 29.96 in 10.0 mi ESE 5.8 mph - N/A   Clear
4:15 AM 62.6 °F - 60.8 °F 94% 29.96 in 10.0 mi ESE 6.9 mph - N/A   Clear
4:35 AM 62.6 °F - 60.8 °F 94% 29.96 in 10.0 mi ESE 8.1 mph - N/A   Clear
4:55 AM 62.6 °F - 60.8 °F 94% 29.96 in 10.0 mi ESE 8.1 mph - N/A   Clear
5:15 AM 62.6 °F - 60.8 °F 94% 29.95 in 10.0 mi ESE 8.1 mph - N/A   Clear
5:35 AM 62.6 °F - 60.8 °F 94% 29.96 in 10.0 mi ESE 5.8 mph - N/A   Clear
5:55 AM 62.6 °F - 60.8 °F 94% 29.96 in 10.0 mi SE 6.9 mph - N/A   Clear
6:15 AM 62.6 °F - 60.8 °F 94% 29.97 in 10.0 mi SE 5.8 mph - N/A   Clear
6:35 AM 64.4 °F - 62.6 °F 94% 29.98 in 10.0 mi SE 4.6 mph - N/A   Clear
6:55 AM 66.2 °F - 62.6 °F 88% 29.98 in 10.0 mi ESE 5.8 mph - N/A   Clear
7:15 AM 66.2 °F - 62.6 °F 88% 29.98 in 10.0 mi ESE 5.8 mph - N/A   Clear
7:35 AM 68.0 °F - 64.4 °F 88% 29.99 in 10.0 mi SE 6.9 mph - N/A   Clear
7:55 AM 69.8 °F - 64.4 °F 83% 29.99 in 10.0 mi ESE 6.9 mph - N/A   Clear
8:15 AM 69.8 °F - 64.4 °F 83% 29.99 in 10.0 mi SSE 5.8 mph - N/A   Clear
8:35 AM 71.6 °F - 64.4 °F 78% 29.99 in 10.0 mi SSE 4.6 mph - N/A   Clear
8:55 AM 71.6 °F - 66.2 °F 83% 29.99 in 10.0 mi South 5.8 mph - N/A   Clear
9:15 AM 73.4 °F - 66.2 °F 78% 29.99 in 10.0 mi SSE 4.6 mph - N/A   Clear
9:35 AM 73.4 °F - 66.2 °F 78% 29.99 in 10.0 mi Calm Calm - N/A   Clear
9:55 AM 75.2 °F - 66.2 °F 73% 29.99 in 10.0 mi WSW 3.5 mph - N/A   Clear
10:15 AM 77.0 °F - 66.2 °F 69% 29.99 in 10.0 mi NW 5.8 mph - N/A   Clear
10:35 AM 77.0 °F - 66.2 °F 69% 29.98 in 10.0 mi NW 4.6 mph - N/A   Clear
10:55 AM 77.0 °F - 66.2 °F 69% 29.98 in 10.0 mi WNW 9.2 mph - N/A   Clear
11:15 AM 78.8 °F - 68.0 °F 69% 29.98 in 10.0 mi WNW 9.2 mph 15.0 mph N/A   Clear
11:35 AM 78.8 °F - 66.2 °F 65% 29.98 in 10.0 mi NNW 6.9 mph - N/A   Mostly Cloudy
11:55 AM 80.6 °F 82.7 °F 66.2 °F 61% 29.98 in 10.0 mi WNW 11.5 mph - N/A   Scattered Clouds
12:15 PM 80.6 °F 82.3 °F 64.4 °F 58% 29.98 in 10.0 mi NNW 9.2 mph - N/A   Partly Cloudy
12:35 PM 80.6 °F 82.3 °F 64.4 °F 58% 29.97 in 10.0 mi NW 8.1 mph 15.0 mph N/A   Scattered Clouds
12:55 PM 80.6 °F 82.3 °F 64.4 °F 58% 29.97 in 10.0 mi NW 8.1 mph 16.1 mph N/A   Mostly Cloudy
1:15 PM 82.4 °F 82.9 °F 60.8 °F 48% 29.97 in 10.0 mi Variable 4.6 mph 11.5 mph N/A   Partly Cloudy
1:35 PM 82.4 °F 83.4 °F 62.6 °F 51% 29.96 in 10.0 mi WNW 10.4 mph - N/A   Clear
1:55 PM 82.4 °F 82.9 °F 60.8 °F 48% 29.96 in 10.0 mi West 9.2 mph 16.1 mph N/A   Clear
2:15 PM 82.4 °F 82.9 °F 60.8 °F 48% 29.96 in 10.0 mi WNW 11.5 mph - N/A   Partly Cloudy
2:35 PM 82.4 °F 83.9 °F 64.4 °F 54% 29.96 in 10.0 mi NW 21.9 mph 27.6 mph N/A   Mostly Cloudy
2:55 PM 80.6 °F 82.3 °F 64.4 °F 58% 29.97 in 10.0 mi WNW 21.9 mph 29.9 mph N/A   Scattered Clouds
3:15 PM 80.6 °F 81.8 °F 62.6 °F 54% 29.97 in 10.0 mi NW 21.9 mph 27.6 mph N/A   Clear
3:35 PM 80.6 °F 81.8 °F 62.6 °F 54% 29.98 in 10.0 mi WNW 26.5 mph 34.5 mph N/A   Clear
3:55 PM 78.8 °F - 62.6 °F 57% 29.99 in 10.0 mi NW 24.2 mph 29.9 mph N/A   Clear
4:15 PM 77.0 °F - 60.8 °F 57% 29.99 in 10.0 mi NW 24.2 mph 32.2 mph N/A   Clear
4:35 PM 73.4 °F - 60.8 °F 65% 30.00 in 10.0 mi NW 25.3 mph 33.4 mph N/A   Clear
4:55 PM 71.6 °F - 59.0 °F 64% 30.01 in 10.0 mi NW 24.2 mph 33.4 mph N/A   Partly Cloudy
5:15 PM 69.8 °F - 59.0 °F 68% 30.02 in 10.0 mi NNW 26.5 mph 33.4 mph N/A   Scattered Clouds
5:35 PM 69.8 °F - 59.0 °F 68% 30.03 in 10.0 mi NNW 26.5 mph 33.4 mph N/A   Scattered Clouds
5:55 PM 71.6 °F - 59.0 °F 64% 30.04 in 10.0 mi NNW 25.3 mph 34.5 mph N/A   Partly Cloudy
6:15 PM 69.8 °F - 59.0 °F 68% 30.05 in 10.0 mi NNW 23.0 mph 34.5 mph N/A   Partly Cloudy
6:35 PM 68.0 °F - 55.4 °F 64% 30.06 in 10.0 mi NNW 24.2 mph 32.2 mph N/A   Mostly Cloudy
6:55 PM 66.2 °F - 53.6 °F 64% 30.07 in 10.0 mi NNW 23.0 mph 32.2 mph N/A   Mostly Cloudy
7:15 PM 66.2 °F - 51.8 °F 60% 30.07 in 10.0 mi NNW 24.2 mph 29.9 mph N/A   Overcast
7:35 PM 64.4 °F - 50.0 °F 59% 30.08 in 10.0 mi NNW 21.9 mph 33.4 mph N/A   Overcast
8:15 PM 64.4 °F - 48.2 °F 56% 30.10 in 10.0 mi NNW 18.4 mph 26.5 mph N/A   Overcast
8:35 PM 64.4 °F - 48.2 °F 56% 30.10 in 10.0 mi NNW 18.4 mph 25.3 mph N/A   Overcast
8:55 PM 62.6 °F - 48.2 °F 59% 30.11 in 10.0 mi NNW 24.2 mph 36.8 mph N/A   Overcast
9:15 PM 62.6 °F - 50.0 °F 63% 30.12 in 10.0 mi North 24.2 mph 32.2 mph N/A   Overcast
9:35 PM 62.6 °F - 50.0 °F 63% 30.13 in 10.0 mi North 18.4 mph 25.3 mph N/A   Mostly Cloudy
9:55 PM 62.6 °F - 51.8 °F 68% 30.13 in 10.0 mi NNW 16.1 mph 27.6 mph N/A   Mostly Cloudy
10:15 PM 60.8 °F - 51.8 °F 72% 30.14 in 10.0 mi North 13.8 mph 21.9 mph N/A   Mostly Cloudy
10:35 PM 60.8 °F - 51.8 °F 72% 30.14 in 10.0 mi NNW 13.8 mph 20.7 mph N/A   Overcast
10:55 PM 60.8 °F - 51.8 °F 72% 30.14 in 10.0 mi NNW 12.7 mph 19.6 mph N/A   Overcast
11:15 PM 60.8 °F - 51.8 °F 72% 30.15 in 10.0 mi North 12.7 mph 20.7 mph N/A   Overcast
11:35 PM 60.8 °F - 51.8 °F 72% 30.15 in 10.0 mi NNW 12.7 mph 20.7 mph N/A   Overcast
11:55 PM 60.8 °F - 51.8 °F 72% 30.15 in 10.0 mi NNW 10.4 mph 17.3 mph N/A   Overcast